Location: Banff
(51.1667°N, 115.5667°W)
Time: 03:33:16
(UTC+00:00)

Explorer 7 - Pass Details

Date: 03 December 2020
Orbit: 484 x 678 km, 50.3° (Epoch: 16 January)

Event Time Altitude Azimuth Distance (km) Brightness Sun altitude
Exits shadow 14:38:22 - 264° (W) 2,221 9.4 -7.4°
Reaches altitude 10° 14:40:43 10° 237° (WSW) 1,796 9.1 -7.1°
Maximum altitude 14:41:28 10° 227° (SW) 1,757 9.2 -7.0°
Drops below altitude 10° 14:42:13 10° 216° (SW) 1,774 9.3 -6.9°
Sets 14:46:13 0° 175° (S) 2,605 10.8 -6.3°
